Marble, NC

2:05 PM EST on March 01, 2017 (GMT -0500)
Andrews

Weather History for KRHP - May, 2014

Change the Weather History Date:

Sunday, May 4, 2014

  Actual Average (KMMI) Record (KMMI)
Temperature  
Mean Temperature 61 °F -  
Max Temperature 82 °F 73 °F 84 °F (2014)
Min Temperature 40 °F 47 °F 42 °F (2014)
Degree Days  
Heating Degree Days 4    
Growing Degree Days 11 (Base 50)    
Moisture  
Dew Point 45 °F    
Average Humidity 64    
Maximum Humidity 99    
Minimum Humidity 24    
Precipitation  
Precipitation 0.00 in - - ()
Sea Level Pressure  
Sea Level Pressure 30.07 in    
Wind  
Wind Speed 3 mph (WSW)    
Max Wind Speed 15 mph    
Max Gust Speed 22 mph    
Visibility 10 miles    
Events      
Averages and records for this station are not official NWS values.
T = Trace of Precipitation, MM = Missing Value Source: NWS Daily Summary

Daily Weather History Graph

Daily Weather History Graph

Search for Another Location

Airport or City:

Trip Planner

Search our weather history database for the weather conditions in past years. The results will help you decide how hot, cold, wet, or windy it might be!

Date:

Astronomy

May. 04, 2014 Rise Set
Actual Time 6:41 AM EDT 8:23 PM EDT
Civil Twilight 6:13 AM EDT 8:51 PM EDT
Nautical Twilight 5:40 AM EDT 9:24 PM EDT
Astronomical Twilight 5:06 AM EDT 9:59 PM EDT
Moon 11:05 AM EDT (5/4) 12:27 AM EDT (5/4)
Length of Visible Light 14h 37m
Length of Day
13h 42m
Waxing Crescent, 27% of the Moon is Illuminated
May 4
Waxing Crescent
May 6
First Quarter
May 14
Full
May 21
Last Quarter
May 28
New

Hourly Weather History & Observations

Time (EDT) Temp. Dew Point Humidity Pressure Visibility Wind Dir Wind Speed Gust Speed Precip Events Conditions
12:15 AM 47.8 °F 42.8 °F 83% 30.07 in 10.0 mi Calm Calm - N/A   Clear
12:35 AM 47.7 °F 44.1 °F 87% 30.08 in 10.0 mi Calm Calm - N/A   Clear
12:55 AM 45.9 °F 43.7 °F 92% 30.08 in 10.0 mi Calm Calm - N/A   Clear
1:15 AM 45.5 °F 43.2 °F 92% 30.08 in 10.0 mi Calm Calm - N/A   Clear
1:35 AM 43.9 °F 42.1 °F 93% 30.08 in 10.0 mi Calm Calm - N/A   Clear
1:55 AM 44.4 °F 41.9 °F 91% 30.08 in 10.0 mi Calm Calm - N/A   Clear
2:15 AM 44.4 °F 42.3 °F 92% 30.08 in 10.0 mi Calm Calm - N/A   Clear
2:35 AM 43.5 °F 41.5 °F 93% 30.08 in 10.0 mi Calm Calm - N/A   Clear
2:55 AM 43.5 °F 42.3 °F 95% 30.08 in 10.0 mi Calm Calm - N/A   Clear
3:15 AM 42.4 °F 41.4 °F 96% 30.07 in 10.0 mi Calm Calm - N/A   Clear
3:35 AM 43.5 °F 42.3 °F 95% 30.08 in 10.0 mi Calm Calm - N/A   Clear
3:55 AM 42.6 °F 40.6 °F 93% 30.08 in 10.0 mi Calm Calm - N/A   Clear
4:15 AM 42.8 °F 41.9 °F 97% 30.08 in 10.0 mi Calm Calm - N/A   Clear
4:35 AM 41.9 °F 40.5 °F 95% 30.08 in 10.0 mi Calm Calm - N/A   Clear
4:55 AM 42.4 °F 41.0 °F 95% 30.08 in 10.0 mi Calm Calm - N/A   Clear
5:15 AM 41.5 °F 40.3 °F 95% 30.08 in 10.0 mi Calm Calm - N/A   Clear
5:35 AM 41.4 °F 41.0 °F 99% 30.09 in 10.0 mi Calm Calm - N/A   Clear
6:15 AM 40.5 °F 39.6 °F 97% 30.09 in 10.0 mi Calm Calm - N/A   Clear
6:35 AM 40.1 °F 39.6 °F 98% 30.10 in 10.0 mi Calm Calm - N/A   Clear
6:55 AM 41.2 °F 40.5 °F 97% 30.11 in 10.0 mi Calm Calm - N/A   Clear
7:15 AM 40.8 °F 40.1 °F 97% 30.12 in 10.0 mi Calm Calm - N/A   Clear
7:35 AM 43.0 °F 42.1 °F 97% 30.12 in 10.0 mi Calm Calm - N/A   Clear
7:55 AM 44.8 °F 43.0 °F 93% 30.12 in 10.0 mi Calm Calm - N/A   Clear
8:15 AM 45.9 °F 43.9 °F 93% 30.13 in 10.0 mi Calm Calm - N/A   Clear
8:35 AM 48.4 °F 45.3 °F 89% 30.14 in 10.0 mi Calm Calm - N/A   Clear
8:55 AM 50.7 °F 45.7 °F 83% 30.13 in 10.0 mi Calm Calm - N/A   Clear
9:15 AM 52.5 °F 46.6 °F 80% 30.13 in 10.0 mi Calm Calm - N/A   Clear
9:35 AM 55.8 °F 47.3 °F 73% 30.13 in 10.0 mi Calm Calm - N/A   Clear
9:55 AM 59.0 °F 47.3 °F 65% 30.13 in 10.0 mi Calm Calm - N/A   Clear
10:15 AM 61.9 °F 47.3 °F 59% 30.13 in 10.0 mi Calm Calm - N/A   Clear
10:35 AM 63.7 °F 48.0 °F 57% 30.12 in 10.0 mi Calm Calm - N/A   Clear
10:55 AM 66.7 °F 49.6 °F 54% 30.12 in 10.0 mi West 3.5 mph - N/A   Clear
11:15 AM 69.6 °F 49.5 °F 49% 30.12 in 10.0 mi WSW 3.5 mph - N/A   Clear
11:35 AM 72.7 °F 47.7 °F 41% 30.11 in 10.0 mi WSW 8.1 mph - N/A   Clear
11:55 AM 74.5 °F 47.1 °F 38% 30.10 in 10.0 mi SSW 9.2 mph - N/A   Clear
12:35 PM 77.2 °F 46.8 °F 34% 30.09 in 10.0 mi SW 8.1 mph - N/A   Clear
12:55 PM 77.9 °F 46.4 °F 33% 30.08 in 10.0 mi SW 12.7 mph 19.6 mph N/A   Clear
1:15 PM 78.3 °F 45.7 °F 32% 30.08 in 10.0 mi WSW 9.2 mph 18.4 mph N/A   Clear
1:35 PM 79.0 °F 45.7 °F 31% 30.07 in 10.0 mi SW 11.5 mph 21.9 mph N/A   Clear
1:55 PM 79.9 °F 46.0 °F 30% 30.06 in 10.0 mi SW 12.7 mph 18.4 mph N/A   Clear
2:15 PM 80.4 °F 46.0 °F 30% 30.06 in 10.0 mi SW 10.4 mph - N/A   Clear
2:35 PM 81.1 °F 45.7 °F 29% 30.05 in 10.0 mi SW 10.4 mph 20.7 mph N/A   Clear
2:55 PM 81.1 °F 45.7 °F 29% 30.04 in 10.0 mi WSW 8.1 mph - N/A   Clear
3:15 PM 82.0 °F 45.0 °F 27% 30.03 in 10.0 mi WSW 13.8 mph - N/A   Clear
3:35 PM 82.8 °F 42.8 °F 24% 30.03 in 10.0 mi NW 9.2 mph 19.6 mph N/A   Clear
3:55 PM 82.6 °F 43.9 °F 26% 30.03 in 10.0 mi West 11.5 mph 21.9 mph N/A   Clear
4:15 PM 82.8 °F 44.4 °F 26% 30.02 in 10.0 mi West 15.0 mph 18.4 mph N/A   Clear
4:35 PM 82.8 °F 46.9 °F 28% 30.01 in 10.0 mi WSW 13.8 mph 20.7 mph N/A   Clear
4:55 PM 82.4 °F 46.9 °F 29% 30.01 in 10.0 mi WSW 11.5 mph 18.4 mph N/A   Clear
5:15 PM 82.0 °F 47.7 °F 30% 30.01 in 10.0 mi WSW 10.4 mph - N/A   Clear
5:35 PM 81.7 °F 47.3 °F 30% 30.01 in 10.0 mi WSW 11.5 mph 18.4 mph N/A   Clear
5:55 PM 81.1 °F 47.1 °F 30% 30.01 in 10.0 mi WSW 9.2 mph - N/A   Clear
6:15 PM 80.4 °F 47.3 °F 31% 30.00 in 10.0 mi SW 8.1 mph - N/A   Scattered Clouds
6:35 PM 79.9 °F 46.2 °F 30% 30.00 in 10.0 mi West 12.7 mph - N/A   Clear
6:55 PM 79.7 °F 47.3 °F 32% 30.01 in 10.0 mi WSW 10.4 mph - N/A   Clear
7:15 PM 78.4 °F 47.1 °F 33% 30.00 in 10.0 mi WSW 9.2 mph - N/A   Clear
7:35 PM 77.2 °F 47.7 °F 35% 30.00 in 10.0 mi WSW 5.8 mph - N/A   Clear
7:55 PM 73.2 °F 48.6 °F 42% 30.01 in 10.0 mi WNW 3.5 mph - N/A   Clear
8:15 PM 71.2 °F 48.7 °F 45% 30.01 in 10.0 mi Calm Calm - N/A   Clear
8:35 PM 68.0 °F 49.6 °F 52% 30.02 in 10.0 mi NNW 4.6 mph - N/A   Clear
8:55 PM 67.6 °F 49.3 °F 52% 30.03 in 10.0 mi NW 6.9 mph - N/A   Clear
9:15 PM 65.3 °F 49.6 °F 57% 30.04 in 10.0 mi NW 5.8 mph - N/A   Clear
9:35 PM 62.8 °F 49.8 °F 63% 30.04 in 10.0 mi North 3.5 mph - N/A   Clear
9:55 PM 61.2 °F 50.0 °F 67% 30.05 in 10.0 mi Calm Calm - N/A   Clear
10:15 PM 59.9 °F 49.5 °F 68% 30.06 in 10.0 mi Calm Calm - N/A   Clear
10:35 PM 58.1 °F 50.7 °F 76% 30.06 in 10.0 mi Calm Calm - N/A   Clear
10:55 PM 56.5 °F 50.5 °F 80% 30.06 in 10.0 mi Calm Calm - N/A   Clear
11:15 PM 56.3 °F 50.0 °F 79% 30.06 in 10.0 mi Calm Calm - N/A   Clear
11:35 PM 54.9 °F 49.3 °F 81% 30.06 in 10.0 mi Calm Calm - N/A   Clear
11:55 PM 53.2 °F 49.8 °F 88% 30.06 in 10.0 mi Calm Calm - N/A   Clear